DW0224 Weather Reports


time (UTC)temp
C
wind
direction
speed
KPH
gust
KPH
rain 1hr
cm
rain 24hr
cm
rain mn
cm
humidity
%
barometer
mb
20260505122131 16 259 0.0 0.0 0.00 0.00 0.00 68 1004.5
20260505121858 16 215 0.0 0.0 0.00 0.00 0.00 66 1004.5
20260505121130 16 180 0.0 0.0 0.00 0.00 0.00 70 1004.5
20260505120857 15 252 0.0 0.0 0.00 0.00 0.00 69 1004.5
20260505120130 15 241 0.0 0.0 0.00 0.00 0.00 71 1004.5
20260505115630 15 194 0.0 0.0 0.00 0.00 0.00 72 1004.7
20260505115129 15 248 0.0 0.0 0.00 0.00 0.00 73 1004.7
20260505114855 15 253 0.0 0.0 0.00 0.00 0.00 72 1004.7
20260505114130 15 240 0.0 0.0 0.00 0.00 0.00 72 1004.7
20260505113631 15 184 0.0 0.0 0.00 0.00 0.00 71 1004.7
20260505113130 15 269 0.0 0.0 0.00 0.00 0.00 73 1004.7
20260505112630 15 132 0.0 0.0 0.00 0.00 0.00 76 1004.6
20260505112622 15 162 0.0 0.0 0.00 0.00 0.00 77 1004.6
20260505111631 15 209 0.0 0.0 0.00 0.00 0.00 79 1004.6
20260505111358 15 257 0.0 0.0 0.00 0.00 0.00 80 1004.8
20260505110631 15 250 0.0 0.0 0.00 0.00 0.00 78 1004.8
20260505110130 14 195 0.0 0.0 0.00 0.00 0.00 80 1004.8
20260505102111 13 252 0.0 0.0 0.00 0.00 0.00 89 1004.9
20260505101610 13 230 0.0 0.0 0.00 0.00 0.00 89 1004.9
20260505101111 13 250 0.0 0.0 0.00 0.00 0.00 89 1004.9
20260505100611 13 163 0.0 0.0 0.00 0.00 0.00 89 1004.9
20260505100108 13 155 0.0 0.0 0.00 0.00 0.00 90 1004.9
20260505095606 13 136 0.0 0.0 0.00 0.00 0.00 89 1004.9
20260505095107 13 196 0.0 0.0 0.00 0.00 0.00 90 1004.9
20260505094606 13 254 0.0 0.0 0.00 0.00 0.00 90 1004.9
20260505094104 13 222 0.0 0.0 0.00 0.00 0.00 90 1004.7
20260505093604 13 180 0.0 0.0 0.00 0.00 0.00 91 1004.7
20260505093331 13 165 0.0 0.0 0.00 0.00 0.00 91 1004.7
20260505092830 13 229 0.0 0.0 0.00 0.00 0.00 91 1004.7
20260505092103 12 226 0.0 0.0 0.00 0.00 0.00 91 1004.7
20260505091603 12 224 0.0 0.0 0.00 0.00 0.00 91 1004.7
20260505091102 12 203 0.0 0.0 0.00 0.00 0.00 91 1004.8
20260505090602 12 180 0.0 0.0 0.00 0.00 0.00 92 1004.8
20260505085829 12 181 0.0 0.0 0.00 0.00 0.00 92 1004.7
20260505085320 12 188 0.0 0.0 0.00 0.00 0.00 92 1004.7
20260505085104 12 188 0.0 0.0 0.00 0.00 0.00 92 1004.7
20260505084602 12 185 0.0 0.0 0.00 0.00 0.00 92 1004.7
20260505084102 12 177 0.0 0.0 0.00 0.00 0.00 93 1004.7
20260505083602 12 208 0.0 0.0 0.00 0.00 0.00 93 1004.7
20260505083102 12 208 0.0 0.0 0.00 0.00 0.00 93 1004.7
20260505082601 12 217 0.0 0.0 0.00 0.00 0.00 93 1004.8
20260505082102 12 207 0.0 0.0 0.00 0.00 0.00 93 1004.8
20260505081604 12 207 0.0 0.0 0.00 0.00 0.00 94 1004.8
20260505081558 12 184 0.0 0.0 0.00 0.00 0.00 94 1004.8
20260505080602 12 205 0.0 0.0 0.00 0.00 0.00 94 1004.8
20260505075603 12 181 0.0 0.0 0.00 0.00 0.00 95 1004.9
20260505075102 12 201 0.0 0.0 0.00 0.00 0.00 95 1004.9
20260505074603 12 201 0.0 0.0 0.00 0.00 0.00 96 1004.9
20260505074102 11 201 0.0 0.0 0.00 0.00 0.00 96 1005.1
20260505073603 11 200 0.0 0.0 0.00 0.00 0.00 95 1005.1
20260505073102 11 192 0.0 0.0 0.00 0.00 0.00 95 1005.1
20260505072602 11 192 0.0 0.0 0.00 0.00 0.00 96 1005.2
20260505072102 12 198 0.0 0.0 0.00 0.00 0.00 96 1005.2
20260505071603 12 217 0.0 0.0 0.00 0.00 0.00 96 1005.2
20260505071102 12 225 0.0 0.0 0.00 0.00 0.00 96 1005.4
20260505070559 11 225 0.0 0.0 0.00 0.00 0.00 96 1005.4
20260505070058 11 225 0.0 0.0 0.00 0.00 0.00 96 1005.4
20260505065556 11 194 0.0 0.0 0.00 0.00 0.00 96 1005.4
20260505065054 11 194 0.0 0.0 0.00 0.00 0.00 96 1005.4
20260505064552 11 196 0.0 0.0 0.00 0.00 0.00 96 1005.4
20260505064050 11 175 0.0 0.0 0.00 0.00 0.00 96 1005.7
20260505063548 11 200 0.0 0.0 0.00 0.00 0.00 96 1005.7
20260505063045 11 223 0.0 0.0 0.00 0.00 0.00 96 1005.7
20260505062545 11 223 0.0 0.0 0.00 0.00 0.00 96 1006.0
20260505062046 11 223 0.0 0.0 0.00 0.00 0.00 96 1006.0
20260505061546 11 223 0.0 0.0 0.00 0.00 0.00 96 1006.0
20260505061047 11 223 0.0 0.0 0.00 0.00 0.00 96 1006.3
20260505060544 11 223 0.0 0.0 0.00 0.00 0.00 96 1006.3
20260505060041 11 223 0.0 0.0 0.00 0.00 0.00 96 1006.3
20260505055812 11 223 0.0 0.0 0.00 0.00 0.00 96 1006.4
20260505055037 11 223 0.0 0.0 0.00 0.00 0.00 96 1006.4
20260505054536 11 223 0.0 0.0 0.00 0.00 0.00 95 1006.4
20260505054033 11 223 0.0 0.0 0.00 0.00 0.00 95 1006.4
20260505053531 11 223 0.0 0.0 0.00 0.00 0.00 95 1006.4
20260505053031 11 223 0.0 0.0 0.00 0.00 0.00 95 1006.4
20260505052531 11 223 0.0 0.0 0.00 0.00 0.00 95 1006.2
20260505052032 11 223 0.0 0.0 0.00 0.00 0.00 95 1006.2
20260505051530 11 223 0.0 0.0 0.00 0.00 0.00 95 1006.2
20260505051030 11 223 0.0 0.0 0.00 0.00 0.00 95 1006.3
20260505050755 10 223 0.0 0.0 0.00 0.00 0.00 95 1006.3
20260505041530 10 223 0.0 0.0 0.00 0.00 0.00 94 1006.1
20260505041254 10 223 0.0 0.0 0.00 0.00 0.00 94 1006.1
20260505040757 10 223 0.0 0.0 0.00 0.00 0.00 94 1006.1
20260505040031 10 223 0.0 0.0 0.00 0.00 0.00 94 1006.1
20260505035531 10 223 0.0 0.0 0.00 0.00 0.00 94 1006.1
20260505035032 10 223 0.0 0.0 0.00 0.00 0.00 94 1006.1
20260505034754 10 223 0.0 0.0 0.00 0.00 0.00 94 1006.1
20260505034030 10 223 0.0 0.0 0.00 0.00 0.00 94 1006.1
20260505033530 10 223 0.0 0.0 0.00 0.00 0.00 94 1006.1
20260505033031 10 223 0.0 0.0 0.00 0.00 0.00 94 1006.1
20260505032531 10 223 0.0 0.0 0.00 0.00 0.00 94 1006.1
20260505032255 10 223 0.0 0.0 0.00 0.00 0.00 94 1006.1
20260505031754 10 223 0.0 0.0 0.00 0.00 0.00 94 1006.1
20260505031030 10 223 0.0 0.0 0.00 0.00 0.00 94 1006.3
20260505030530 10 223 0.0 0.0 0.00 0.00 0.00 94 1006.3
20260505030254 10 223 0.0 0.0 0.00 0.00 0.00 94 1006.3
20260505025531 10 223 0.0 0.0 0.00 0.00 0.00 94 1006.5
20260505025031 10 225 0.0 0.0 0.00 0.00 0.00 94 1006.5
20260505024531 10 217 0.0 0.0 0.00 0.00 0.00 94 1006.5
20260505024300 10 222 0.0 0.0 0.00 0.00 0.00 94 1006.7
20260505023551 10 222 0.0 0.0 0.00 0.00 0.00 94 1006.7
20260505023542 10 222 0.0 0.0 0.00 0.00 0.00 94 1006.7
20260505022031 10 222 0.0 0.0 0.00 0.00 0.00 94 1006.7
20260505021530 10 225 0.0 0.0 0.00 0.00 0.00 94 1006.7
20260505021031 10 225 0.0 0.0 0.00 0.00 0.00 94 1006.6
20260505020519 10 200 0.0 0.0 0.00 0.00 0.00 94 1006.6
20260505020012 10 200 0.0 0.0 0.00 0.00 0.00 94 1006.6
20260505015512 10 200 0.0 0.0 0.00 0.00 0.00 94 1006.6
20260505015011 10 200 0.0 0.0 0.00 0.00 0.00 94 1006.6
20260505014511 10 200 0.0 0.0 0.00 0.00 0.00 94 1006.6
20260505014009 10 200 0.0 0.0 0.00 0.00 0.00 94 1006.7
20260505013507 10 200 0.0 0.0 0.00 0.00 0.00 94 1006.7
20260505013005 10 200 0.0 0.0 0.00 0.00 0.00 94 1006.7
20260505012503 10 200 0.0 0.0 0.00 0.00 0.00 94 1006.6
20260505012003 10 200 0.0 0.0 0.00 0.00 0.00 94 1006.6
20260505011503 10 200 0.0 0.0 0.00 0.00 0.00 94 1006.6
20260505011002 10 200 0.0 0.0 0.00 0.00 0.00 94 1006.6
20260505010502 10 200 0.0 0.0 0.00 0.00 0.00 94 1006.6
20260505010002 10 200 0.0 0.0 0.00 0.00 0.00 94 1006.6
20260505005503 10 200 0.0 0.0 0.00 0.00 0.00 94 1006.9
20260505005002 10 200 0.0 0.0 0.00 0.00 0.00 94 1006.9
20260505004503 10 200 0.0 0.0 0.00 0.00 0.00 94 1006.9
20260505004003 10 200 0.0 0.0 0.00 0.00 0.00 94 1007.2
20260505003502 10 200 0.0 0.0 0.00 0.00 0.00 94 1007.2
20260505003002 10 200 0.0 0.0 0.00 0.00 0.00 94 1007.2
20260505002727 10 200 0.0 0.0 0.00 0.00 0.00 94 1007.5
20260505002002 10 200 0.0 0.0 0.00 0.00 0.00 94 1007.5
20260505001728 10 200 0.0 0.0 0.00 0.00 0.00 94 1007.5
20260505001003 10 200 0.0 0.0 0.00 0.00 0.00 94 1007.6
20260505000502 10 200 0.0 0.0 0.00 0.00 0.00 94 1007.6
20260505000004 10 200 0.0 0.0 0.00 0.00 0.00 94 1007.6
20260504235731 10 200 0.0 0.0 0.00 0.00 0.00 94 1007.6
20260504235002 10 200 0.0 0.0 0.00 0.00 0.00 94 1007.6
20260504234503 10 200 0.0 0.0 0.00 0.00 0.00 94 1007.6
20260504234002 10 248 0.0 0.0 0.00 0.00 0.00 94 1008.0
20260504233502 10 247 0.0 0.0 0.00 0.00 0.00 94 1008.0
20260504233002 10 248 0.0 0.0 0.00 0.00 0.00 94 1008.0
20260504232502 10 248 0.0 0.0 0.00 0.00 0.00 94 1008.2
20260504232003 10 247 0.0 0.0 0.00 0.00 0.00 94 1008.2
20260504231502 10 247 0.0 0.0 0.00 0.00 0.00 94 1008.2
20260504231002 9 247 0.0 0.0 0.00 0.00 0.00 94 1008.2
20260504230502 9 247 0.0 0.0 0.00 0.00 0.00 94 1008.2
20260504230227 9 247 0.0 0.0 0.00 0.00 0.00 93 1008.2
20260504225727 9 247 0.0 0.0 0.00 0.00 0.00 93 1008.2
20260504225229 9 248 0.0 0.0 0.00 0.00 0.00 93 1008.2
20260504224503 9 248 0.0 0.0 0.00 0.00 0.00 93 1008.2
20260504224003 9 247 0.0 0.0 0.00 0.00 0.00 93 1008.3
20260504223503 9 247 0.0 0.0 0.00 0.00 0.00 93 1008.3
20260504223005 9 247 0.0 0.0 0.00 0.00 0.00 93 1008.3
20260504222504 9 247 0.0 0.0 0.00 0.00 0.00 93 1008.3
20260504222231 9 247 0.0 0.0 0.00 0.00 0.00 92 1008.3
20260504221503 9 247 0.0 0.0 0.00 0.00 0.00 92 1008.3
20260504221452 9 247 0.0 0.0 0.00 0.00 0.00 92 1008.3
20260504220504 9 247 0.0 0.0 0.00 0.00 0.00 92 1008.3
20260504220005 9 248 0.0 0.0 0.00 0.00 0.00 92 1008.3
20260504215503 9 248 0.0 0.0 0.00 0.00 0.00 92 1008.6
20260504215230 9 248 0.0 0.0 0.00 0.00 0.00 92 1008.6
20260504214503 9 248 0.0 0.0 0.00 0.00 0.00 92 1008.6
20260504214004 9 247 0.0 0.0 0.00 0.00 0.00 92 1008.7
20260504213504 9 247 0.0 0.0 0.00 0.00 0.00 92 1008.7
20260504213003 9 248 0.0 0.0 0.00 0.00 0.00 91 1008.7
20260504212503 9 247 0.0 0.0 0.00 0.00 0.00 91 1008.7
20260504212226 9 247 0.0 0.0 0.00 0.00 0.00 91 1008.7
20260504211456 9 247 0.0 0.0 0.00 0.00 0.00 91 1008.7
20260504210944 10 247 0.0 0.0 0.00 0.00 0.00 91 1008.7
20260504210707 10 247 0.0 0.0 0.00 0.00 0.00 91 1008.7
20260504205938 10 248 0.0 0.0 0.00 0.00 0.00 91 1008.7
20260504205438 10 248 0.0 0.0 0.00 0.00 0.00 91 1008.7
20260504205206 10 247 0.0 0.0 0.00 0.00 0.00 91 1008.7
20260504204435 10 247 0.0 0.0 0.00 0.00 0.00 91 1008.7
20260504204157 10 248 0.0 0.0 0.00 0.00 0.00 91 1008.7
20260504203434 10 247 0.0 0.0 0.00 0.00 0.00 90 1008.7
20260504202934 10 247 0.0 0.0 0.00 0.00 0.00 90 1008.7
20260504202434 10 247 0.0 0.0 0.00 0.00 0.00 90 1009.0
20260504201933 10 247 0.0 0.0 0.00 0.00 0.00 90 1009.0
20260504201431 10 247 0.0 0.0 0.00 0.00 0.00 90 1009.0
20260504200930 10 247 0.0 0.0 0.00 0.00 0.00 90 1009.2
20260504200431 10 247 0.0 0.0 0.00 0.00 0.00 90 1009.2
20260504195928 10 248 0.0 0.0 0.00 0.00 0.00 90 1009.2
20260504195647 10 247 0.0 0.0 0.00 0.00 0.00 90 1009.2
20260504194918 11 247 0.0 0.0 0.00 0.00 0.00 89 1009.2
20260504194412 11 248 0.0 0.0 0.00 0.00 0.00 89 1009.1
20260504194130 11 248 0.0 0.0 0.00 0.00 0.00 89 1009.1
20260504193408 11 248 0.0 0.0 0.00 0.00 0.00 89 1009.1
20260504192908 11 247 0.0 0.0 0.00 0.00 0.00 89 1008.9
20260504192406 11 248 0.0 0.0 0.00 0.00 0.00 89 1008.9
20260504192134 11 248 0.0 0.0 0.00 0.00 0.00 89 1008.9
20260504191404 11 248 0.0 0.0 0.00 0.00 0.00 89 1009.1
20260504190904 11 247 0.0 0.0 0.00 0.00 0.00 89 1009.1
20260504190404 11 248 0.0 0.0 0.00 0.00 0.00 89 1009.1
20260504190131 11 247 0.0 0.0 0.00 0.00 0.00 89 1009.2
20260504185625 11 247 0.0 0.0 0.00 0.00 0.00 89 1009.2
20260504185129 12 247 0.0 0.0 0.00 0.00 0.00 89 1009.2
20260504184404 12 247 0.0 0.0 0.00 0.00 0.00 89 1009.2
20260504183904 12 247 0.0 0.0 0.00 0.00 0.00 89 1009.2
20260504183626 12 247 0.0 0.0 0.00 0.00 0.00 89 1009.2
20260504182904 12 247 0.0 0.0 0.00 0.00 0.00 89 1009.2
20260504182403 12 248 0.0 0.0 0.00 0.00 0.00 89 1009.2
20260504181903 12 247 0.0 0.0 0.00 0.00 0.00 89 1009.2
20260504181628 12 247 0.0 0.0 0.00 0.00 0.00 89 1009.2
20260504181127 12 265 0.0 1.6 0.00 0.00 0.00 89 1009.2
20260504180405 12 286 0.0 1.6 0.00 0.00 0.00 89 1009.2
20260504175904 12 250 0.0 1.6 0.00 0.00 0.00 89 1009.1
20260504175637 12 250 0.0 1.6 0.00 0.00 0.00 89 1009.1
20260504174903 12 250 0.0 0.0 0.00 0.00 0.00 89 1009.1
20260504174629 12 250 0.0 1.6 0.00 0.00 0.00 90 1009.2
20260504174128 12 250 0.0 1.6 0.00 0.00 0.00 90 1009.2
20260504173403 12 250 0.0 1.6 0.00 0.00 0.00 90 1009.2
20260504172902 12 250 0.0 1.6 0.00 0.00 0.00 90 1009.3
20260504172402 12 250 0.0 0.0 0.00 0.00 0.00 90 1009.3
20260504171902 12 250 0.0 0.0 0.00 0.00 0.00 90 1009.3
20260504171403 12 250 0.0 0.0 0.00 0.00 0.00 90 1009.5
20260504171135 12 250 0.0 0.0 0.00 0.00 0.00 90 1009.5
20260504170855 12 250 0.0 1.6 0.00 0.00 0.00 90 1009.5
20260504160333 12 211 0.0 1.6 0.00 0.00 0.00 92 1009.8
20260504151100 12 238 1.6 12.9 0.00 0.00 0.00 89 1010.9
20260504150554 12 225 0.0 3.2 0.00 0.00 0.00 88 1010.9
20260504141330 14 293 1.6 8.0 0.00 0.00 0.00 79 1010.1
20260504140831 15 207 3.2 8.0 0.00 0.00 0.00 77 1010.1
20260504140331 15 247 3.2 6.4 0.00 0.00 0.00 76 1010.1
20260504130330 16 198 0.0 0.0 0.00 0.00 0.00 63 1009.3